Wind_Speed
25 25 24 23 22 21 21 20 21 20 20 20 20 20 21 21 22 23 23 23 23 23 23 21 20 20 19 18 17 17 17 16 17 17 18 18 16 16 16 16 15 15 15 14 15 16 16 16 16 15 15 14 14 14 13 13 12 11 9 8 11 14 15 17 18 19 19 16 17 17 17 18 19 21 21 18 20 22 23 22 21 23 23 24 25 25 25 23
24 24 23 22 21 21 21 20 20 20 20 19 19 19 20 20 21 22 23 23 23 23 23 23 21 20 19 19 18 17 16 16 17 17 18 17 17 17 16 16 16 16 15 15 15 17 17 17 16 16 16 16 15 14 13 13 12 11 11 10 12 16 18 19 21 21 20 17 14 12 14 17 18 19 21 18 19 22 22 21 21 22 22 22 23 24 24 22
25 24 23 22 22 22 22 21 21 21 21 20 19 19 19 19 20 20 21 22 23 23 23 23 22 21 20 19 18 17 16 16 17 17 17 17 17 17 17 17 16 16 16 16 16 17 18 17 17 16 16 16 15 14 14 12 11 11 11 12 14 18 20 20 21 20 19 17 13 9 9 12 13 14 19 20 20 23 23 21 22 22 21 21 21 21 21 21
26 25 24 24 23 22 22 22 22 21 21 21 20 19 19 18 19 19 20 21 22 23 23 23 23 22 21 20 18 17 16 16 17 17 17 16 17 17 17 17 17 17 17 17 17 17 18 18 18 18 17 17 16 15 13 12 12 11 12 16 18 20 20 20 20 19 18 18 15 12 11 12 12 13 17 21 21 23 23 21 21 21 20 20 20 20 21 21
27 26 25 24 23 22 21 21 21 20 19 20 19 19 19 18 18 18 18 19 21 22 22 22 23 22 22 21 19 17 17 17 16 16 16 16 16 17 17 17 17 17 17 17 17 17 18 18 18 18 18 17 16 16 13 14 14 12 15 19 19 20 21 21 21 20 20 18 14 14 15 15 14 15 18 22 23 22 22 20 20 20 20 21 21 21 21 21
27 26 25 24 23 22 21 20 20 19 18 18 18 18 18 17 17 17 17 18 19 20 21 22 22 22 22 21 19 17 17 16 16 15 15 16 16 16 16 17 17 17 17 17 18 18 19 19 19 18 18 17 17 17 16 16 14 13 17 19 19 21 21 21 21 20 20 18 12 11 15 17 17 18 19 21 23 23 22 20 20 21 20 21 21 21 21 22
28 26 25 24 23 21 20 19 19 18 16 17 17 16 16 16 15 15 16 16 17 19 20 21 21 21 22 21 19 18 17 16 16 15 15 14 15 15 16 16 16 17 17 18 18 19 19 19 19 19 19 19 20 20 19 18 16 16 19 19 19 20 21 21 21 20 19 18 14 10 12 16 19 21 19 19 21 22 23 22 21 21 21 21 20 19 20 21
28 27 25 23 22 21 20 19 19 18 16 16 15 15 15 14 14 14 14 15 16 17 19 19 20 20 21 21 19 18 17 16 16 15 15 13 13 13 14 16 16 16 17 17 18 19 20 21 21 21 21 22 22 21 20 19 18 19 20 20 19 19 20 21 20 20 18 17 14 11 12 14 17 19 19 19 21 22 23 22 21 22 22 21 20 18 18 20
29 27 25 23 22 21 20 19 18 18 16 15 14 13 13 13 12 12 12 14 15 16 17 18 19 19 20 20 18 17 18 17 16 15 15 14 13 12 13 14 15 15 16 17 18 19 21 22 23 23 23 23 22 21 20 18 17 19 22 22 21 20 21 22 20 18 16 13 11 11 14 16 16 17 21 22 21 23 23 21 20 22 21 20 19 17 16 19
29 28 26 24 23 22 20 19 18 18 16 14 13 12 11 11 11 10 10 12 13 15 16 17 17 18 18 18 17 18 18 18 17 16 15 15 15 14 13 13 14 15 16 17 19 21 21 22 22 22 22 21 20 20 20 18 17 20 23 22 21 21 21 20 18 16 14 11 11 13 16 18 17 16 21 23 21 24 24 20 20 22 20 19 19 17 16 17
29 28 27 25 24 23 21 19 18 17 16 14 12 11 10 10 10 9 9 10 11 13 15 16 17 17 17 16 17 17 18 19 19 16 15 15 16 15 15 14 14 14 15 17 18 19 19 20 20 19 19 17 17 19 19 18 19 19 20 21 21 18 16 15 15 15 15 14 12 14 16 18 17 15 19 23 22 24 24 22 22 21 20 19 18 15 15 16
29 29 27 26 25 23 22 20 18 17 15 13 12 10 9 9 9 9 8 8 9 11 13 14 16 16 15 15 15 15 17 20 19 16 15 15 15 15 15 14 14 13 14 16 15 15 16 16 16 17 16 16 17 19 18 17 16 16 16 18 19 15 12 12 14 14 14 14 13 14 15 17 17 15 19 23 22 24 25 23 21 19 17 15 15 15 15 16
29 29 28 27 26 25 23 21 18 17 14 12 11 10 9 9 9 8 8 8 7 8 10 12 14 14 13 12 12 13 16 20 19 17 16 15 15 14 14 14 14 14 14 14 13 13 15 15 15 16 16 17 18 17 17 15 13 14 13 13 14 13 12 13 13 13 13 13 14 14 13 15 16 15 20 23 22 24 25 22 20 18 15 13 15 16 17 17
30 30 30 28 27 26 24 22 19 17 14 12 10 10 9 9 8 7 7 7 6 6 8 10 11 11 11 11 11 13 15 19 18 17 16 15 15 14 13 13 14 14 14 13 13 14 15 16 17 18 18 19 18 17 17 16 12 12 10 8 10 12 13 12 11 12 13 12 13 11 9 10 11 13 18 22 22 23 24 22 20 18 14 14 16 16 17 19
31 31 31 31 29 28 26 23 20 17 14 12 10 9 9 8 7 6 5 5 5 5 6 9 10 10 11 12 12 12 14 17 17 16 16 15 14 13 13 13 13 14 13 14 15 16 16 18 18 18 18 19 18 17 17 14 12 11 9 8 10 12 10 7 9 12 13 12 11 8 6 7 9 11 16 21 22 21 22 22 21 19 15 16 16 16 18 18
32 32 33 33 32 30 28 24 21 18 14 12 11 10 9 8 7 6 4 3 3 4 6 8 9 9 10 10 10 11 13 15 15 15 16 15 14 13 12 12 12 13 13 14 15 16 17 18 18 18 18 18 17 18 17 13 11 10 10 11 13 13 9 9 10 11 12 13 12 8 6 8 10 12 16 21 23 22 24 24 24 21 17 17 17 17 17 16
33 33 34 34 34 32 29 26 22 19 16 14 12 11 11 10 9 8 6 3 1 3 6 7 8 9 8 8 8 10 12 13 15 15 15 15 14 14 13 12 12 13 13 14 15 16 17 18 18 18 18 18 18 18 16 13 10 10 12 14 16 17 16 16 15 14 14 13 12 10 7 9 12 13 16 21 22 22 24 25 25 22 18 18 19 17 16 14
34 34 35 35 35 34 31 28 24 21 18 16 15 14 13 12 11 10 10 7 3 2 5 7 7 7 8 7 7 7 9 11 12 14 15 15 14 14 14 13 12 12 12 12 13 15 16 17 17 17 17 17 16 16 14 13 11 11 15 18 20 21 20 18 18 18 16 11 11 10 8 12 16 18 19 20 20 21 23 25 25 24 22 22 21 19 17 17
35 35 35 35 36 35 33 30 26 23 20 18 17 16 15 13 12 11 11 11 8 4 1 3 3 3 5 7 7 6 6 8 9 11 12 13 13 14 14 14 13 12 11 11 11 11 12 14 15 15 15 14 13 13 13 14 14 13 17 21 22 21 17 17 19 19 16 12 10 8 8 13 16 18 20 21 22 22 24 26 27 27 27 26 25 21 19 20
37 36 36 36 36 36 35 32 29 26 22 21 19 18 17 15 14 13 12 12 11 9 5 4 5 4 3 5 5 5 5 6 8 9 10 11 12 13 14 14 14 13 12 11 9 8 10 11 12 13 14 13 12 12 13 16 16 17 21 24 24 19 15 17 17 14 15 16 11 6 8 12 13 16 19 22 23 24 25 26 27 29 28 28 27 23 21 21
37 37 37 37 36 36 36 33 31 28 24 22 21 21 20 19 17 15 13 12 11 10 8 6 6 6 4 5 5 6 6 6 8 10 10 11 12 11 11 13 14 14 13 11 9 8 10 11 11 12 14 14 13 12 14 16 18 20 23 25 25 22 18 17 12 9 15 17 10 6 10 11 12 15 18 22 24 24 24 25 26 28 29 28 26 23 21 19
37 38 38 38 37 37 36 35 33 30 26 23 21 22 21 20 18 16 14 13 12 11 10 8 7 5 5 6 6 6 6 6 6 8 8 9 10 10 11 11 12 12 11 11 10 10 11 11 12 13 14 15 14 13 15 18 20 23 25 25 26 25 22 18 13 13 16 11 5 7 12 11 12 15 18 22 24 24 25 26 25 27 30 28 26 23 18 15
36 37 38 38 38 37 36 35 34 32 29 24 22 21 21 20 19 17 15 14 13 13 11 9 8 6 6 6 6 6 5 5 5 5 5 6 8 9 10 8 8 9 11 11 11 11 11 11 12 13 14 15 16 17 19 20 22 23 25 26 26 23 21 19 15 16 18 12 10 12 16 14 13 17 19 22 25 27 30 29 27 28 29 28 27 24 17 13
34 35 37 38 38 38 37 36 34 33 31 28 24 21 20 20 19 19 18 14 14 14 13 11 8 7 8 8 7 7 6 4 4 3 4 6 7 8 8 7 7 9 12 12 13 13 12 13 14 15 16 16 18 19 19 19 20 22 24 26 26 23 21 22 21 18 20 18 19 20 22 19 16 17 20 23 27 31 33 33 33 33 30 29 29 26 20 16
33 34 35 36 37 38 38 37 35 34 33 30 28 25 22 21 20 20 19 16 15 14 14 14 11 10 12 11 10 11 9 6 6 5 4 7 7 7 7 8 9 10 13 13 12 11 11 14 15 17 18 18 19 18 18 19 20 22 23 24 24 24 23 25 26 24 23 21 21 23 24 19 16 17 20 24 28 31 33 34 35 35 32 30 29 25 22 20
30 32 33 34 35 37 37 38 36 34 33 32 31 29 26 24 21 20 17 16 17 15 15 15 14 13 13 13 12 12 10 8 7 6 5 6 7 7 7 9 10 11 13 12 11 11 13 15 16 18 19 18 17 17 19 23 23 23 24 25 25 25 24 24 28 30 29 27 25 24 24 23 22 22 23 26 29 30 31 32 32 32 31 29 28 25 25 25
28 30 32 32 33 35 36 37 36 34 34 33 32 31 30 27 24 22 19 18 19 17 16 16 15 14 14 12 12 11 9 8 7 6 5 4 4 5 7 8 9 10 12 11 11 13 15 16 18 19 19 18 17 18 22 25 26 25 24 25 26 27 26 24 30 35 35 34 33 30 30 30 29 30 29 28 28 26 26 29 31 30 30 30 30 28 27 28
26 27 29 30 31 32 34 36 36 35 34 33 33 32 31 29 27 25 21 20 21 18 18 17 15 14 12 11 12 11 8 7 8 7 5 3 2 2 4 5 6 9 11 10 11 13 14 15 17 19 19 20 19 19 22 25 27 26 24 24 25 26 27 26 30 38 39 38 37 36 36 35 34 34 31 28 26 24 23 28 31 31 32 34 34 32 31 30
24 25 26 28 29 29 31 33 34 35 34 33 33 33 31 29 28 26 23 22 21 19 18 17 15 14 12 10 11 9 7 8 9 7 5 3 1 1 2 4 6 9 10 10 10 12 14 14 16 18 19 19 18 18 22 26 28 26 24 24 24 23 25 26 30 36 41 42 41 39 39 39 39 38 33 29 28 28 28 30 33 33 35 36 36 35 35 33
23 23 24 25 27 27 28 30 32 33 33 32 32 32 30 29 28 26 25 23 22 20 19 17 16 16 14 12 12 10 7 8 8 6 4 3 1 1 2 4 6 8 10 10 11 12 12 12 14 17 19 18 18 20 24 27 27 25 24 24 22 19 21 25 29 33 38 43 45 45 44 43 44 44 39 33 32 33 33 34 36 36 36 36 35 36 36 35
22 22 22 23 25 26 25 26 29 30 31 31 31 31 30 29 27 26 27 26 23 21 20 19 18 17 17 16 15 14 12 10 8 5 3 2 2 3 5 6 5 6 9 10 11 12 11 11 13 17 20 22 21 22 24 26 28 27 26 26 24 22 21 24 27 30 33 37 40 43 44 43 43 45 44 40 39 39 37 37 40 39 37 37 35 34 35 36
20 20 21 21 22 23 24 23 25 27 29 29 29 30 29 27 26 26 27 26 24 23 22 21 20 19 18 17 17 16 15 14 12 10 8 7 7 7 8 9 8 8 10 11 12 12 12 13 15 18 22 24 22 21 22 26 28 28 28 27 26 26 25 25 26 27 30 33 35 36 37 40 42 43 43 42 41 42 40 39 40 39 37 38 37 35 35 36
18 19 19 19 19 21 22 21 21 23 25 26 27 28 27 25 26 27 27 25 24 24 22 21 21 20 19 18 17 17 16 15 13 12 12 11 12 12 11 12 11 11 11 12 13 13 13 15 18 20 22 23 23 22 22 25 27 28 29 29 29 29 29 26 24 24 26 28 32 33 34 37 40 41 41 41 40 40 40 39 40 39 38 38 37 36 36 35
17 17 18 18 18 18 19 19 19 19 21 23 24 25 25 25 26 27 26 25 24 24 23 21 20 20 19 19 18 17 16 15 14 12 12 12 13 14 15 15 15 14 14 13 14 14 12 12 18 21 22 22 23 24 24 25 25 25 26 27 27 29 29 24 21 22 22 23 26 29 32 33 33 34 36 38 39 39 39 40 42 43 41 39 38 37 35 34
15 16 17 17 16 17 17 17 18 17 17 19 20 22 23 24 25 26 25 25 24 23 23 23 21 20 20 20 19 18 17 16 15 14 12 12 12 12 14 17 18 17 16 17 17 17 13 11 15 20 20 21 21 23 25 24 23 23 23 24 24 26 26 24 23 23 21 21 21 22 26 26 25 26 26 27 31 34 36 38 42 45 44 40 38 37 36 33
14 15 16 16 16 16 15 15 16 16 15 15 17 18 19 22 24 24 24 24 24 23 23 23 22 21 21 20 19 19 18 16 16 16 14 14 13 14 15 17 19 18 17 18 19 19 15 11 14 18 19 21 20 20 24 25 23 23 24 25 25 24 24 25 26 25 21 22 22 19 21 23 23 23 22 22 25 28 30 33 36 40 41 41 42 41 37 33
13 13 14 15 15 15 14 14 15 15 14 14 14 13 15 18 20 22 22 22 22 23 22 22 22 21 21 21 19 19 19 17 16 16 16 16 16 17 19 20 20 20 20 20 20 20 16 11 13 17 18 19 20 19 21 24 24 24 25 26 24 23 23 25 27 26 24 24 22 18 17 19 22 23 22 21 23 26 28 28 29 30 31 32 37 38 36 32
12 13 14 15 15 14 13 13 13 13 13 13 12 12 13 14 15 17 19 20 20 21 21 21 21 21 20 21 20 20 20 20 18 17 16 17 17 18 21 23 24 23 23 24 23 23 21 14 11 16 18 17 20 20 21 23 24 24 25 25 26 26 25 26 27 27 26 25 24 20 17 17 19 21 21 22 23 25 26 27 27 27 28 28 31 34 33 27
12 13 14 14 14 13 13 12 12 12 13 12 11 11 13 13 13 13 14 16 17 18 20 20 20 21 20 20 20 21 21 21 21 20 19 19 18 19 21 23 24 25 25 26 25 24 26 21 12 14 19 19 20 22 22 22 23 24 25 25 25 27 27 26 26 27 27 26 27 25 21 18 18 19 20 22 23 24 25 25 25 25 26 28 31 32 28 22
11 13 13 14 13 12 12 12 13 13 13 12 11 11 12 12 13 13 12 13 13 14 16 18 18 19 20 20 20 21 20 21 22 21 21 22 22 22 23 23 23 24 24 25 26 25 26 25 18 13 17 19 21 23 23 22 21 22 25 25 25 25 26 26 26 27 28 28 28 27 25 21 19 19 21 22 24 24 24 24 24 24 23 23 24 24 23 22
12 13 13 13 13 13 13 13 13 13 12 11 11 11 11 11 12 12 13 13 12 11 11 13 15 16 18 19 20 21 20 20 22 23 23 24 25 25 26 26 25 25 25 24 25 26 26 26 23 17 15 16 19 23 23 22 21 21 22 24 25 26 26 27 27 28 29 29 28 28 27 23 19 21 23 24 26 26 25 25 26 25 23 21 20 20 22 24
12 13 13 12 13 13 13 13 14 13 12 12 12 12 11 11 11 12 13 13 13 12 10 10 11 12 14 16 18 20 21 20 22 24 25 27 28 28 28 29 28 28 28 26 26 26 25 25 24 21 17 16 17 20 21 22 21 21 21 21 23 25 26 27 29 29 29 29 28 30 31 26 21 22 26 26 27 28 28 28 27 26 25 24 22 22 24 25
11 12 12 12 13 14 13 13 13 12 13 12 12 12 11 11 11 11 11 12 14 15 13 11 9 9 11 13 16 19 22 22 23 24 26 29 31 31 31 31 31 31 30 30 29 27 24 23 23 21 18 17 17 17 18 18 18 18 18 18 20 22 23 25 26 27 27 27 28 30 33 30 25 25 28 29 29 28 28 27 26 28 28 28 26 25 26 26
10 10 10 11 13 14 14 14 13 12 12 12 13 13 12 11 11 11 11 11 13 15 15 12 10 9 10 12 14 18 22 24 24 25 26 29 32 32 32 33 33 32 32 31 30 27 25 24 23 21 18 14 13 14 14 13 13 15 16 17 19 20 21 21 22 24 25 26 26 28 30 29 27 27 27 28 29 28 27 26 26 27 29 31 31 28 27 26
9 10 10 10 12 13 14 14 13 13 12 13 14 14 13 11 11 11 11 11 12 14 15 13 11 10 10 11 13 17 21 24 26 27 27 29 32 33 34 35 34 33 32 31 30 28 27 25 23 22 19 14 9 11 13 12 12 14 15 17 19 19 18 18 19 21 23 25 27 28 28 28 28 29 30 30 31 29 27 27 27 27 29 29 27 27 27 25
9 10 10 10 11 12 12 12 12 13 12 13 13 13 12 11 11 11 11 11 12 13 14 14 13 11 11 12 13 16 21 25 27 29 29 29 31 32 34 35 35 34 32 30 29 28 26 23 21 18 18 15 11 10 12 13 13 14 14 15 18 19 18 17 17 19 20 23 24 25 27 29 29 31 32 32 32 30 28 30 30 29 29 26 24 25 27 24
9 10 10 10 11 12 12 12 12 12 12 13 13 13 12 12 11 11 11 11 12 13 13 14 14 13 12 12 12 16 21 25 28 30 31 32 32 33 34 35 35 34 31 29 28 26 23 20 18 16 15 15 13 12 12 12 12 11 11 12 15 18 18 16 16 17 19 21 22 22 25 28 28 29 29 27 27 27 27 29 29 28 28 28 26 26 24 21
9 9 10 11 11 12 13 13 12 12 13 14 14 13 13 13 13 12 11 11 12 13 13 14 14 14 13 12 12 15 20 25 28 30 32 34 35 34 36 36 35 34 31 26 23 22 20 18 17 15 15 16 15 14 13 12 11 10 10 10 12 15 16 15 15 17 18 20 22 21 22 24 25 27 28 26 26 25 25 27 26 25 25 25 24 23 22 22
9 9 10 10 11 12 13 13 13 13 13 14 13 13 12 12 12 12 12 13 13 14 14 15 14 14 14 13 13 15 19 23 27 30 32 34 36 36 37 37 36 34 31 24 17 16 17 16 16 15 14 16 15 13 14 14 12 11 11 11 11 12 13 14 15 15 16 17 20 21 21 22 22 24 26 26 26 26 25 27 27 26 26 26 25 26 27 27
9 9 9 10 10 11 12 12 12 12 13 13 13 12 12 11 11 11 12 13 14 15 15 15 15 15 14 14 14 16 19 22 26 30 32 34 36 38 39 39 36 31 28 21 15 15 16 16 16 15 13 13 13 12 13 14 13 12 11 11 11 11 11 12 12 13 14 15 16 18 19 19 20 21 23 24 25 24 25 26 27 26 26 27 27 26 27 27
10 10 10 10 10 10 11 11 11 11 11 12 12 12 12 12 12 11 12 13 14 15 15 15 15 15 14 14 15 16 19 22 26 30 32 34 36 37 39 40 37 30 26 21 17 17 18 17 16 15 12 11 11 11 12 13 13 13 12 11 12 11 11 11 11 12 13 14 15 16 17 18 18 19 20 22 22 23 23 25 26 27 27 27 27 28 28 28
11 11 11 11 11 11 11 12 12 11 11 12 13 13 13 13 14 14 14 14 14 15 15 15 16 16 15 14 15 17 19 22 26 29 32 34 36 37 38 40 38 33 28 23 19 17 18 17 16 15 14 12 12 13 13 12 12 12 11 11 12 12 11 11 12 12 12 12 13 14 15 16 16 16 17 20 21 22 22 22 23 25 25 25 26 28 29 28
Wind_Direction
322 319 316 313 309 305 301 297 294 291 287 284 280 276 273 268 263 258 256 255 253 251 250 250 249 248 247 246 246 246 244 241 238 236 236 234 232 233 233 231 230 231 230 229 224 218 214 212 214 212 210 209 211 214 216 220 218 216 208 203 212 206 206 215 218 221 221 211 200 204 217 222 226 236 240 243 250 258 264 267 266 267 272 279 285 288 291 297
327 323 320 316 312 308 304 300 296 293 290 286 282 278 273 269 265 259 255 252 251 250 248 247 248 248 246 244 243 243 243 242 239 237 237 235 232 231 231 230 230 230 229 228 223 218 214 212 213 214 215 213 212 215 219 222 220 216 206 202 218 217 213 215 220 225 227 230 225 211 215 223 224 235 246 249 253 260 265 268 270 272 277 283 288 292 296 302
330 326 322 318 314 310 306 302 298 295 292 288 284 280 275 271 266 261 255 251 248 248 247 245 245 246 245 244 242 241 241 241 239 238 236 235 233 230 228 228 228 228 227 226 224 219 214 212 211 213 218 219 217 218 221 223 221 217 205 198 212 222 222 223 226 231 235 240 241 230 223 231 229 233 248 254 257 263 265 266 270 275 282 287 290 295 301 303
332 328 324 320 316 312 308 305 301 298 294 291 287 282 277 272 267 262 257 251 247 245 245 244 243 243 243 243 241 239 238 239 239 238 236 235 234 232 229 226 227 227 226 225 224 220 216 213 212 212 217 221 223 223 223 223 220 214 208 205 212 221 225 228 233 235 240 244 244 240 237 241 239 237 247 253 256 262 267 270 275 282 290 295 298 303 307 308
334 331 328 324 321 318 313 309 305 302 298 293 289 285 280 275 268 263 258 251 245 243 242 242 241 240 241 241 239 238 236 237 239 239 237 234 233 233 231 228 227 227 225 224 223 220 217 214 214 214 215 220 225 226 223 224 218 209 214 216 219 226 228 230 235 239 244 247 250 248 245 246 246 245 249 255 262 267 272 278 285 292 296 300 304 308 310 313
338 335 332 330 328 324 320 315 310 306 302 296 291 287 283 279 272 265 259 252 245 241 240 240 239 238 238 239 238 235 234 235 235 236 235 233 232 231 231 230 229 228 225 224 223 221 218 215 215 215 217 219 223 224 219 220 216 209 220 221 219 226 231 234 237 242 247 251 257 253 244 246 250 250 249 256 265 271 279 286 288 291 296 299 303 308 310 311
342 339 337 335 333 330 326 321 315 312 306 300 296 292 288 284 277 268 261 253 246 240 237 237 237 236 236 237 235 232 231 233 233 232 233 232 230 229 230 230 228 227 225 223 222 221 218 217 216 214 216 218 221 223 217 214 210 210 222 225 224 228 234 238 240 243 248 253 260 257 244 244 250 254 254 258 263 268 277 285 288 291 294 297 302 307 307 306
347 344 342 340 337 335 331 326 320 316 312 305 302 300 295 291 284 272 263 255 247 240 236 235 235 235 234 233 232 230 227 229 230 230 230 227 225 224 225 227 227 226 225 223 222 221 219 217 216 214 215 217 220 223 222 218 208 210 221 225 226 231 236 240 244 246 246 248 250 252 252 251 252 257 260 262 264 265 271 279 287 292 293 298 304 305 303 302
351 348 347 345 342 339 336 330 323 319 316 310 307 306 302 299 293 282 269 259 250 241 234 232 233 233 233 231 230 226 224 225 226 227 227 224 222 220 221 223 224 225 224 222 220 220 220 218 218 217 218 220 221 222 226 227 216 213 221 224 224 226 233 241 246 249 247 239 232 242 255 258 256 258 262 265 268 268 271 278 283 285 289 297 301 300 300 299
355 352 351 349 346 343 340 335 328 324 321 314 309 307 303 301 300 294 282 267 255 244 234 229 229 230 231 229 226 223 221 222 222 222 224 224 224 224 223 223 222 222 222 222 221 220 220 220 220 221 225 228 229 228 227 228 223 221 224 227 228 227 233 242 251 258 258 243 226 233 245 253 255 256 263 268 271 273 276 281 283 285 294 299 299 299 298 299
359 356 354 352 349 346 343 338 333 329 327 320 312 307 301 297 297 297 291 278 263 248 237 229 225 227 229 227 224 221 220 222 221 218 218 222 225 225 224 223 222 222 223 225 226 226 227 227 224 225 228 231 236 239 235 231 230 231 231 233 236 238 243 251 259 263 259 248 234 234 242 250 254 254 260 267 273 277 281 284 285 290 297 299 299 299 297 302
4 360 357 355 352 349 345 342 337 334 331 325 318 310 302 297 294 291 288 285 271 252 239 231 225 224 226 226 221 217 217 222 221 215 214 218 220 221 222 222 223 224 227 229 229 230 233 233 232 232 230 230 237 242 244 243 243 245 242 238 240 243 247 252 253 251 248 246 241 240 246 252 255 253 254 263 273 279 280 282 287 292 294 296 299 297 299 307
9 4 1 358 355 352 349 345 341 337 334 329 324 319 310 304 299 291 282 280 276 256 240 232 226 223 226 225 216 210 215 222 219 213 214 215 217 217 219 221 223 224 227 231 230 229 232 233 234 233 229 232 237 240 244 246 247 250 248 243 242 235 230 235 239 237 235 240 244 243 248 256 258 256 255 261 270 274 277 281 286 288 291 297 299 299 303 306
13 9 5 2 359 356 353 349 346 342 338 334 332 329 322 314 307 297 281 273 271 257 238 230 225 221 225 222 210 202 212 222 218 211 213 215 216 216 217 222 225 226 227 227 228 228 230 231 230 228 226 232 235 234 239 243 244 247 252 251 243 231 227 232 237 234 228 231 240 244 254 266 266 261 262 267 270 273 280 284 281 280 287 295 296 300 306 306
17 14 10 7 4 2 360 357 355 351 347 346 345 344 338 330 320 307 289 270 261 246 227 221 220 217 219 218 209 196 204 220 219 210 213 215 216 217 218 223 227 229 227 225 226 227 230 231 231 230 229 233 234 235 241 246 247 250 256 244 228 228 226 218 225 231 229 227 232 242 264 288 300 293 284 280 275 275 279 279 277 279 286 292 296 303 307 306
21 18 15 12 10 9 8 7 7 6 7 9 9 7 3 359 354 345 328 287 249 228 211 210 213 214 217 216 209 195 193 212 218 212 214 215 216 220 223 227 231 231 228 226 226 228 230 232 233 233 233 235 234 237 242 245 250 255 253 233 216 215 204 185 203 228 238 238 237 246 273 298 312 315 307 294 280 273 274 275 276 280 288 294 302 309 309 307
25 22 19 18 16 15 16 17 19 22 26 27 25 22 18 18 17 17 18 15 225 198 191 197 205 204 206 210 210 201 188 196 210 212 214 217 218 221 226 229 232 234 233 231 229 230 231 232 233 232 233 236 234 236 239 240 250 254 238 219 205 202 199 195 205 226 240 247 248 255 285 305 306 309 308 300 286 276 276 278 281 286 294 300 305 309 308 306
28 26 23 22 22 21 21 24 27 30 33 34 31 26 22 25 29 32 35 37 45 161 180 191 202 198 191 192 200 206 195 192 203 207 208 213 218 222 226 228 231 236 238 238 237 236 235 235 235 233 233 237 240 244 244 238 240 243 231 217 208 207 208 206 207 216 227 242 254 260 295 307 304 303 298 290 282 275 273 278 287 294 299 301 301 304 305 305
30 29 27 26 26 26 26 27 30 33 36 38 38 36 33 34 38 42 49 53 56 59 88 169 168 183 198 192 185 191 201 202 207 209 206 208 215 220 224 227 231 236 239 239 242 245 246 245 241 239 236 235 238 242 242 239 232 225 222 220 218 214 215 218 215 214 218 228 245 260 290 294 298 302 297 288 279 276 276 281 289 293 294 295 295 300 305 307
31 31 31 30 30 30 30 30 32 34 37 41 43 47 49 49 50 54 60 64 68 68 57 69 92 103 183 193 176 175 192 209 215 215 210 210 213 216 220 225 229 234 237 237 238 243 248 250 248 243 237 231 231 232 234 237 235 224 219 221 223 215 210 222 225 226 228 230 234 251 267 273 288 296 295 291 285 283 284 283 285 286 287 288 291 300 306 306
30 31 32 33 33 33 34 33 34 36 39 43 45 50 55 56 56 58 60 62 69 77 78 81 91 101 131 151 151 158 168 187 207 212 213 215 214 214 218 222 227 231 234 236 232 233 239 242 242 238 232 225 222 227 235 242 244 238 230 227 226 219 214 219 224 237 240 235 234 247 254 264 283 286 287 290 289 290 290 286 284 282 283 285 290 299 303 303
30 31 32 34 35 35 36 37 38 39 41 45 48 51 54 55 55 58 60 61 66 75 82 84 84 92 118 133 137 142 146 158 188 200 206 212 213 214 218 221 229 234 237 239 230 225 233 237 236 233 229 225 220 219 226 232 236 237 235 233 231 227 223 221 222 239 242 230 225 258 260 268 281 279 282 287 287 290 294 294 289 283 281 284 289 294 297 297
30 31 32 34 36 38 38 38 40 41 43 45 48 50 52 52 54 59 62 63 66 73 80 80 76 89 109 112 113 116 120 141 164 176 189 200 204 212 221 224 231 236 238 239 230 218 217 223 226 224 221 221 220 216 218 222 224 229 232 234 234 231 224 217 219 243 248 222 198 234 252 254 261 271 279 285 286 289 292 291 287 285 283 282 283 285 286 285
30 31 32 33 36 39 40 40 41 42 44 46 46 46 48 50 54 60 63 67 71 72 79 86 82 82 87 86 89 93 96 111 113 127 179 188 192 204 214 218 224 235 238 238 236 227 218 215 215 215 212 207 209 213 218 224 226 230 234 236 237 232 224 215 212 232 247 229 206 217 235 239 241 258 272 280 282 284 285 284 283 285 284 279 278 279 280 278
30 30 32 33 35 38 40 41 41 43 45 47 47 46 47 50 55 59 60 66 74 74 76 83 83 78 78 80 84 87 85 88 92 102 158 173 185 199 205 214 223 236 244 246 245 238 228 223 221 220 216 207 205 209 220 231 234 238 243 245 244 238 231 222 213 219 233 230 221 223 233 237 237 247 260 267 271 273 276 278 278 279 279 275 275 278 283 282
29 30 31 33 35 37 40 42 42 43 45 46 47 47 49 51 54 57 58 61 68 69 69 72 76 78 82 86 85 82 82 91 101 107 129 155 181 202 212 227 237 245 255 261 253 238 230 231 232 230 228 225 218 215 226 238 240 239 244 250 251 248 244 228 212 215 224 224 222 225 233 236 231 232 239 248 256 262 270 274 273 274 276 278 279 281 283 284
28 30 31 33 35 37 39 42 43 43 44 45 45 46 48 51 52 55 55 55 59 61 62 64 67 72 78 85 84 78 80 93 98 93 94 116 161 195 213 229 246 257 263 264 253 243 238 239 243 244 246 249 243 230 231 241 244 245 250 255 252 252 254 238 214 214 222 223 221 224 235 239 235 232 234 240 249 255 263 270 273 275 278 280 281 280 280 282
26 28 30 32 34 37 39 42 44 44 44 45 45 45 47 49 51 53 52 50 53 56 57 58 58 62 64 68 77 81 85 93 90 82 76 75 107 182 216 227 243 256 260 257 254 254 254 257 261 263 261 256 250 241 237 242 249 256 260 262 258 253 253 244 222 215 220 224 223 225 234 241 241 241 239 238 240 242 249 258 266 273 276 277 277 276 276 278
26 27 30 31 33 36 39 42 44 45 45 45 45 46 46 47 48 51 51 51 53 54 54 53 50 52 53 49 61 78 89 90 89 89 92 90 102 189 216 223 234 248 257 257 253 253 259 266 271 270 266 262 259 256 251 250 254 259 261 262 264 261 254 245 230 221 222 225 225 227 234 241 245 245 242 239 237 236 241 250 259 267 271 273 275 274 273 273
25 27 29 30 32 35 38 42 45 46 46 45 45 46 46 47 47 48 50 50 51 52 53 52 47 47 49 45 44 52 62 70 79 93 109 108 106 221 240 247 241 243 251 251 249 250 254 261 266 266 265 264 262 258 257 257 259 262 262 260 263 265 257 247 240 234 230 230 232 234 237 242 246 246 242 239 242 244 246 250 258 265 265 265 268 269 267 266
25 26 27 30 32 34 37 42 44 46 47 46 46 47 47 47 47 47 49 49 47 48 49 50 49 46 45 43 40 37 35 36 42 47 47 22 331 316 302 298 288 262 258 257 253 250 247 249 255 258 259 259 256 254 254 257 259 263 264 263 262 261 256 247 244 246 245 242 242 242 242 242 244 247 246 242 244 249 250 251 257 264 263 259 259 260 261 263
25 26 26 29 32 33 35 40 44 46 48 48 47 48 49 48 48 47 48 48 46 45 45 45 46 45 43 41 39 36 32 28 23 16 12 357 333 325 306 298 294 275 268 268 264 259 255 257 258 257 261 265 261 255 252 250 253 259 261 261 262 262 259 252 249 250 252 251 251 251 249 245 244 248 252 250 248 250 252 250 253 260 262 259 257 257 259 263
23 25 26 28 32 35 35 38 44 47 49 49 48 49 51 50 50 50 48 47 46 44 43 41 40 40 40 38 36 35 32 30 24 11 4 356 344 336 325 311 300 284 275 273 273 271 266 269 271 268 269 272 269 261 256 254 253 254 255 256 258 261 262 260 254 250 252 254 255 255 253 249 248 251 256 258 254 250 250 250 251 255 259 258 256 256 258 261
20 24 26 26 30 35 34 35 41 46 49 51 50 51 52 53 52 51 49 48 46 43 42 41 38 35 34 33 33 30 26 26 26 17 4 354 346 338 330 322 311 301 297 298 295 290 283 279 277 275 273 271 268 265 263 264 262 254 248 251 255 257 260 261 254 250 255 260 258 255 253 252 254 257 261 263 258 250 248 251 254 255 256 256 255 256 258 261
19 22 24 25 28 33 33 33 37 42 47 50 51 51 53 55 54 52 50 49 48 45 43 41 38 35 31 29 28 27 24 18 16 15 4 352 344 334 326 319 314 312 310 307 304 301 300 295 282 279 278 273 268 266 268 270 270 261 251 250 254 256 258 259 259 260 263 264 259 254 253 256 260 263 265 263 258 252 248 250 252 252 251 252 255 258 260 260
16 19 20 21 24 28 29 27 33 40 45 47 50 51 53 56 56 54 52 50 48 46 44 41 38 34 31 27 23 21 21 16 10 6 357 348 342 331 323 316 312 313 310 305 303 303 307 303 287 284 284 281 276 271 271 273 272 269 262 256 255 257 259 261 265 268 267 264 263 257 252 257 262 264 263 259 255 252 250 250 249 249 249 248 249 253 255 255
11 13 15 14 16 23 23 21 28 37 42 44 45 47 51 55 56 55 54 51 49 47 45 43 40 35 31 28 24 19 18 16 12 4 353 345 340 329 322 317 313 314 313 309 307 308 310 306 290 285 284 285 285 280 276 275 272 271 268 263 261 262 263 265 268 269 268 267 266 262 256 256 259 260 262 260 256 253 254 257 257 258 261 253 243 243 246 249
4 3 4 6 10 17 16 15 22 27 34 40 40 39 44 50 52 52 53 52 51 49 46 44 41 38 33 29 26 22 17 13 10 6 355 345 339 329 320 317 316 317 315 313 311 310 309 306 293 286 284 283 283 281 277 275 275 275 273 270 267 263 259 260 265 267 269 271 272 272 268 264 263 262 259 256 255 255 258 262 264 268 274 268 254 248 249 255
359 356 357 3 8 10 7 9 16 19 25 33 34 35 39 43 44 44 47 48 48 49 48 46 43 40 36 30 25 21 16 11 7 3 357 349 342 331 320 317 319 319 318 316 314 312 308 306 301 287 285 285 281 278 275 273 274 276 277 275 270 263 259 260 265 267 269 272 275 275 270 269 273 274 267 259 256 256 258 263 265 269 274 274 269 265 266 274
353 349 352 0 3 2 0 4 11 15 18 21 24 30 35 38 39 37 37 38 39 43 46 46 44 42 39 33 26 20 14 9 4 359 355 350 342 333 326 325 325 322 319 317 315 313 309 307 306 294 285 285 283 279 277 274 272 272 273 274 271 267 265 267 269 268 269 270 272 273 271 270 274 276 274 269 263 259 260 264 266 268 271 273 272 271 277 285
347 346 353 357 353 353 355 359 8 13 12 12 17 25 30 32 33 31 30 29 27 29 35 39 40 39 38 35 28 21 13 7 2 356 351 346 341 336 332 331 329 324 320 318 316 314 310 308 310 305 291 283 281 282 282 279 276 273 269 268 267 266 267 270 271 271 272 272 272 274 274 271 269 270 272 272 268 264 264 266 267 268 270 269 267 267 273 279
344 347 353 351 346 346 351 359 8 9 6 8 14 19 22 23 24 25 25 24 22 20 19 22 27 29 31 30 26 18 11 5 1 355 349 345 342 338 334 329 326 324 323 322 320 317 312 311 313 312 306 292 282 279 279 279 279 278 274 270 268 268 268 269 270 271 271 271 273 275 274 272 269 269 272 273 271 267 262 262 265 268 267 263 262 265 268 270
343 348 349 346 344 342 347 1 8 5 5 9 11 14 16 16 16 18 19 19 20 18 14 8 6 8 13 17 18 14 8 2 358 354 347 344 343 340 334 329 326 326 326 324 325 325 321 318 319 318 314 303 293 287 280 278 280 278 277 275 272 271 271 270 270 270 268 269 271 272 273 274 272 270 272 273 273 267 257 254 261 266 265 260 258 260 262 263
341 344 343 344 343 341 348 1 4 2 7 9 9 11 12 10 9 10 10 12 14 14 12 8 360 355 355 359 5 7 5 359 355 353 348 343 343 340 334 330 328 327 327 326 327 329 327 327 327 324 319 310 300 292 284 281 282 281 282 283 281 278 276 272 271 270 270 270 271 269 270 272 271 268 268 269 269 262 252 254 265 270 271 267 259 255 257 260
338 338 341 346 344 343 351 358 357 358 4 8 9 8 6 6 7 5 3 5 7 7 7 6 1 354 348 349 353 357 359 357 352 351 349 344 342 340 336 333 331 330 329 328 329 330 330 333 335 330 325 322 311 291 282 276 273 279 286 288 287 287 282 278 277 276 274 273 272 270 269 270 271 269 265 265 267 264 256 259 266 271 276 270 255 252 258 262
335 336 340 346 344 343 348 352 354 357 1 6 8 4 2 5 8 8 5 4 2 1 3 4 2 358 351 347 350 352 354 354 352 351 349 345 342 340 338 336 334 333 333 330 330 333 334 337 340 336 331 328 323 306 291 280 278 286 291 287 285 284 283 285 285 284 282 279 278 277 273 270 270 270 267 267 270 270 266 264 265 267 268 261 255 259 260 257
333 335 339 343 343 342 344 348 353 355 359 5 5 1 1 5 10 12 8 3 1 2 5 5 1 359 354 349 350 352 351 351 352 352 350 347 345 343 341 340 337 335 334 333 333 336 340 342 343 343 338 330 324 318 309 302 300 300 294 287 284 283 284 286 284 285 287 284 285 286 280 273 268 266 267 269 272 273 270 266 265 262 257 256 264 269 261 253
323 330 336 340 343 343 344 348 351 351 358 3 359 356 359 4 9 10 6 6 8 8 8 6 1 358 354 350 348 349 349 350 351 351 350 349 349 346 344 343 341 339 338 337 337 341 345 344 344 345 339 329 324 323 322 323 321 313 305 302 296 291 291 291 288 287 287 284 286 289 285 279 272 266 266 269 271 272 270 266 264 261 258 260 264 263 259 259
312 323 331 336 342 344 345 349 350 351 358 357 349 347 352 359 6 7 4 8 12 11 8 5 1 356 352 349 344 342 347 351 351 351 351 352 352 350 347 345 344 343 342 340 340 344 347 344 342 343 336 324 324 328 330 331 328 319 315 311 305 302 302 299 299 299 293 287 289 290 286 282 277 271 268 268 267 268 268 267 267 266 265 266 265 262 262 264
308 317 323 329 336 342 345 348 349 354 355 344 335 338 342 347 359 5 4 5 7 6 4 1 358 355 351 347 341 340 346 351 352 353 353 354 354 352 349 346 347 347 344 340 335 337 340 339 337 340 335 321 323 332 330 326 322 314 312 311 308 311 315 313 312 311 303 297 297 295 290 286 282 276 273 270 268 268 268 268 270 269 268 267 267 265 265 267
299 305 312 320 327 335 341 340 342 349 343 331 328 334 337 340 348 356 357 357 358 358 358 356 354 352 349 345 339 340 346 350 352 353 354 355 355 354 350 348 348 350 349 342 333 326 325 326 329 336 336 321 317 325 326 319 312 307 308 309 306 307 314 318 318 314 308 305 304 302 298 293 287 282 278 274 271 272 272 271 271 273 272 270 268 267 268 269
289 296 305 313 320 327 330 330 334 338 331 327 329 332 334 338 341 343 346 348 349 350 351 351 349 347 346 343 340 341 345 349 352 353 353 354 354 353 351 348 348 351 352 348 340 328 318 316 320 326 329 322 313 316 322 318 309 303 300 300 306 312 316 320 321 317 313 311 312 313 312 306 298 291 283 278 276 275 274 273 273 276 278 276 273 271 269 267
Height
5790 5788 5785 5783 5781 5780 5779 5777 5776 5775 5774 5773 5773 5772 5772 5772 5772 5772 5773 5773 5774 5775 5776 5777 5777 5778 5779 5779 5780 5781 5782 5783 5783 5784 5784 5785 5787 5788 5788 5789 5790 5791 5792 5792 5793 5794 5795 5795 5796 5797 5798 5799 5799 5800 5801 5801 5802 5804 5806 5807 5807 5806 5806 5805 5805 5804 5805 5806 5807 5807 5808 5809 5811 5811 5810 5811 5812 5812 5812 5812 5812 5811 5811 5811 5811 5811 5811 5812
5787 5785 5783 5781 5779 5777 5776 5774 5773 5772 5771 5770 5769 5769 5769 5768 5768 5769 5769 5770 5771 5771 5772 5773 5775 5775 5776 5777 5778 5779 5780 5780 5781 5781 5782 5783 5785 5785 5786 5787 5788 5789 5790 5791 5791 5792 5793 5794 5795 5796 5797 5797 5798 5799 5800 5800 5801 5803 5804 5805 5805 5804 5803 5803 5802 5802 5803 5805 5806 5807 5807 5808 5809 5810 5808 5808 5809 5809 5810 5811 5810 5810 5810 5811 5810 5809 5809 5810
5785 5783 5781 5779 5777 5775 5773 5771 5770 5769 5768 5767 5766 5765 5765 5765 5765 5765 5766 5766 5767 5768 5769 5770 5772 5773 5774 5774 5775 5776 5777 5778 5779 5779 5780 5781 5782 5783 5784 5785 5786 5787 5788 5789 5790 5790 5792 5793 5794 5795 5795 5796 5797 5798 5798 5799 5801 5802 5803 5803 5803 5802 5802 5802 5801 5802 5802 5803 5805 5806 5806 5806 5808 5809 5807 5805 5806 5806 5808 5809 5808 5808 5809 5809 5809 5808 5808 5807
5784 5781 5778 5776 5774 5772 5770 5769 5767 5766 5765 5764 5763 5762 5762 5762 5762 5762 5762 5763 5764 5765 5766 5767 5769 5770 5771 5772 5773 5774 5775 5776 5777 5777 5778 5779 5780 5781 5782 5783 5784 5785 5786 5787 5788 5789 5790 5791 5792 5793 5794 5795 5796 5796 5797 5798 5799 5801 5802 5801 5800 5800 5801 5801 5801 5801 5802 5802 5803 5804 5804 5804 5806 5807 5805 5803 5803 5803 5805 5806 5806 5806 5807 5807 5806 5805 5805 5805
5782 5779 5777 5774 5772 5770 5768 5766 5764 5763 5762 5761 5760 5759 5759 5759 5759 5759 5759 5760 5760 5762 5763 5764 5766 5767 5768 5769 5771 5772 5773 5774 5775 5776 5777 5777 5778 5779 5780 5781 5782 5783 5785 5785 5786 5787 5788 5789 5790 5791 5792 5794 5795 5795 5796 5797 5798 5799 5799 5799 5799 5799 5799 5799 5800 5801 5801 5801 5802 5803 5803 5803 5804 5805 5804 5802 5800 5801 5803 5803 5804 5804 5804 5803 5803 5803 5802 5802
5780 5777 5775 5772 5770 5768 5766 5764 5762 5761 5759 5758 5757 5756 5756 5756 5756 5756 5756 5757 5757 5758 5760 5761 5763 5764 5765 5767 5769 5770 5771 5772 5773 5774 5775 5776 5777 5778 5779 5780 5781 5782 5783 5784 5784 5785 5786 5787 5788 5790 5791 5792 5793 5793 5794 5795 5796 5798 5797 5797 5798 5798 5798 5798 5799 5799 5800 5801 5802 5802 5802 5802 5802 5802 5802 5801 5799 5799 5800 5801 5801 5802 5802 5802 5801 5801 5800 5800
5779 5776 5773 5770 5768 5765 5763 5761 5760 5758 5757 5755 5754 5754 5753 5753 5753 5753 5753 5754 5754 5755 5757 5758 5760 5761 5763 5765 5766 5768 5769 5770 5771 5772 5773 5774 5775 5776 5777 5778 5779 5780 5781 5782 5783 5783 5784 5785 5786 5787 5788 5789 5790 5790 5791 5792 5794 5795 5795 5795 5797 5796 5796 5797 5797 5798 5799 5800 5801 5801 5800 5800 5800 5800 5800 5800 5798 5798 5798 5799 5799 5799 5800 5800 5800 5800 5799 5799
5778 5775 5772 5769 5766 5764 5762 5760 5757 5756 5755 5753 5752 5752 5751 5751 5751 5751 5751 5751 5752 5753 5754 5755 5757 5759 5760 5762 5764 5766 5767 5768 5769 5770 5771 5772 5773 5774 5775 5776 5777 5778 5779 5780 5781 5781 5782 5783 5784 5785 5786 5787 5788 5788 5789 5790 5792 5793 5792 5793 5794 5795 5795 5795 5796 5797 5798 5799 5800 5799 5799 5798 5799 5798 5797 5797 5797 5797 5797 5797 5797 5797 5797 5798 5799 5799 5798 5797
5777 5774 5770 5767 5765 5762 5760 5758 5756 5754 5753 5751 5750 5750 5749 5749 5748 5748 5749 5749 5749 5750 5751 5753 5755 5756 5758 5760 5762 5763 5764 5766 5767 5768 5769 5771 5772 5773 5774 5775 5776 5776 5777 5778 5778 5779 5779 5780 5782 5783 5784 5784 5786 5787 5788 5789 5791 5791 5790 5790 5792 5793 5793 5793 5794 5795 5796 5798 5799 5799 5798 5797 5797 5797 5795 5795 5795 5794 5795 5796 5796 5796 5797 5797 5797 5797 5797 5796
5777 5773 5769 5766 5763 5761 5758 5756 5754 5752 5751 5750 5749 5748 5747 5747 5747 5747 5747 5747 5747 5748 5749 5751 5752 5754 5755 5757 5759 5761 5762 5763 5765 5766 5768 5769 5770 5772 5772 5773 5774 5775 5775 5776 5776 5776 5777 5779 5780 5782 5783 5784 5785 5786 5786 5787 5789 5789 5788 5789 5789 5791 5792 5792 5793 5794 5795 5797 5798 5797 5797 5795 5796 5796 5792 5791 5793 5791 5792 5794 5794 5794 5795 5796 5796 5795 5795 5794
5776 5772 5768 5765 5762 5759 5757 5755 5752 5750 5749 5748 5747 5746 5745 5745 5745 5745 5745 5745 5745 5746 5747 5748 5750 5752 5753 5755 5757 5759 5760 5761 5762 5765 5766 5767 5769 5770 5771 5772 5772 5773 5774 5774 5775 5776 5777 5779 5780 5781 5782 5784 5785 5784 5785 5786 5786 5787 5788 5788 5788 5789 5791 5792 5793 5793 5794 5794 5795 5795 5795 5793 5794 5795 5791 5789 5791 5789 5789 5791 5792 5793 5794 5794 5793 5793 5792 5792
5776 5772 5768 5764 5761 5758 5756 5753 5751 5749 5747 5746 5745 5744 5744 5744 5744 5744 5744 5743 5744 5744 5745 5747 5748 5750 5752 5754 5755 5757 5758 5758 5761 5763 5764 5766 5767 5768 5769 5770 5771 5772 5773 5773 5774 5776 5777 5778 5779 5780 5781 5782 5783 5782 5784 5784 5785 5786 5787 5787 5787 5788 5790 5791 5791 5792 5792 5792 5793 5793 5792 5792 5792 5793 5789 5788 5790 5787 5786 5789 5790 5791 5792 5792 5791 5791 5790 5790
5776 5772 5768 5764 5760 5757 5754 5752 5749 5747 5746 5745 5743 5743 5742 5742 5742 5742 5742 5742 5742 5743 5744 5745 5747 5749 5751 5752 5754 5756 5756 5756 5759 5761 5763 5764 5766 5767 5768 5769 5770 5771 5772 5773 5774 5775 5775 5776 5777 5778 5780 5780 5780 5781 5782 5782 5784 5784 5785 5786 5787 5788 5788 5789 5789 5790 5790 5790 5790 5791 5791 5790 5790 5791 5788 5787 5789 5787 5785 5787 5789 5789 5789 5790 5790 5789 5789 5788
5776 5772 5768 5764 5760 5756 5753 5750 5748 5746 5744 5743 5742 5742 5741 5741 5740 5741 5741 5741 5741 5742 5743 5744 5746 5747 5749 5751 5752 5754 5754 5755 5758 5760 5761 5763 5764 5766 5767 5768 5769 5769 5771 5772 5773 5773 5773 5774 5775 5777 5778 5778 5778 5779 5779 5780 5782 5782 5784 5785 5786 5786 5787 5787 5788 5788 5788 5788 5788 5789 5789 5789 5789 5789 5786 5785 5787 5786 5785 5786 5787 5787 5787 5788 5788 5788 5787 5786
5777 5772 5768 5764 5760 5756 5752 5749 5747 5745 5743 5742 5741 5741 5740 5740 5739 5739 5740 5740 5740 5741 5742 5743 5744 5746 5747 5749 5751 5753 5753 5753 5756 5759 5760 5762 5763 5764 5766 5767 5768 5768 5769 5770 5771 5771 5772 5773 5774 5775 5776 5776 5777 5778 5778 5779 5781 5782 5783 5783 5783 5784 5785 5786 5786 5786 5787 5787 5787 5787 5788 5788 5788 5788 5786 5784 5784 5785 5783 5783 5784 5785 5786 5786 5786 5786 5786 5784
5778 5773 5769 5764 5760 5756 5752 5749 5746 5744 5743 5742 5741 5740 5740 5739 5739 5739 5739 5739 5739 5740 5741 5742 5743 5745 5746 5748 5750 5752 5753 5753 5755 5758 5759 5760 5762 5763 5765 5766 5767 5767 5768 5768 5769 5770 5771 5771 5772 5773 5774 5774 5776 5776 5777 5779 5780 5781 5781 5781 5781 5782 5783 5784 5784 5785 5785 5785 5786 5787 5787 5787 5787 5786 5785 5782 5781 5782 5782 5781 5782 5783 5783 5783 5784 5784 5784 5783
5778 5774 5770 5765 5761 5757 5753 5750 5747 5745 5743 5742 5742 5741 5740 5740 5739 5739 5739 5739 5739 5739 5740 5741 5742 5744 5745 5747 5748 5750 5753 5754 5755 5756 5758 5759 5761 5762 5763 5764 5765 5766 5766 5767 5768 5768 5769 5770 5771 5772 5772 5773 5774 5774 5776 5777 5778 5779 5778 5778 5778 5778 5779 5780 5781 5782 5782 5783 5784 5785 5785 5784 5784 5785 5785 5782 5780 5780 5779 5779 5779 5780 5781 5780 5781 5782 5782 5781
5780 5776 5771 5767 5763 5759 5755 5752 5749 5746 5745 5743 5742 5741 5740 5740 5740 5740 5739 5739 5739 5739 5740 5741 5742 5744 5745 5746 5748 5749 5751 5753 5754 5755 5757 5758 5760 5761 5762 5763 5764 5765 5765 5766 5767 5767 5768 5768 5769 5770 5771 5772 5773 5774 5775 5775 5776 5777 5776 5776 5775 5775 5776 5777 5778 5779 5779 5780 5781 5782 5782 5782 5781 5782 5782 5780 5779 5778 5777 5777 5776 5777 5778 5778 5779 5780 5780 5779
5781 5777 5773 5769 5765 5761 5757 5754 5751 5748 5746 5745 5743 5742 5741 5740 5740 5740 5740 5740 5740 5740 5741 5742 5743 5745 5745 5746 5747 5748 5750 5751 5753 5754 5756 5757 5759 5760 5761 5761 5762 5763 5764 5765 5766 5766 5767 5767 5768 5769 5770 5771 5772 5773 5773 5773 5774 5774 5774 5773 5773 5774 5776 5776 5775 5776 5776 5776 5776 5778 5779 5779 5779 5779 5777 5776 5776 5776 5775 5774 5774 5775 5776 5777 5778 5779 5778 5778
5782 5779 5775 5771 5767 5763 5759 5756 5753 5751 5748 5747 5745 5743 5742 5742 5741 5741 5741 5741 5741 5741 5742 5743 5744 5745 5746 5746 5747 5748 5749 5750 5751 5753 5754 5756 5757 5758 5759 5760 5761 5762 5763 5763 5764 5765 5766 5766 5767 5768 5768 5769 5770 5770 5771 5771 5771 5772 5771 5770 5771 5773 5774 5773 5773 5773 5773 5773 5773 5775 5777 5778 5778 5777 5775 5773 5773 5773 5773 5773 5773 5773 5774 5775 5776 5777 5777 5776
5784 5780 5777 5773 5769 5765 5762 5758 5755 5753 5751 5749 5747 5745 5744 5744 5743 5742 5742 5742 5742 5742 5742 5743 5744 5745 5746 5747 5747 5748 5749 5750 5751 5752 5753 5755 5756 5757 5758 5759 5760 5760 5761 5762 5763 5764 5764 5764 5765 5766 5766 5766 5767 5768 5769 5769 5769 5769 5768 5768 5769 5771 5772 5771 5771 5771 5771 5771 5771 5773 5775 5776 5777 5776 5774 5772 5771 5771 5771 5771 5771 5771 5772 5773 5775 5775 5775 5774
5785 5782 5779 5775 5771 5768 5764 5761 5758 5755 5753 5751 5750 5748 5747 5746 5745 5744 5743 5743 5743 5743 5743 5744 5744 5745 5746 5746 5747 5748 5749 5749 5750 5751 5753 5754 5755 5756 5757 5758 5759 5760 5760 5762 5762 5762 5762 5763 5763 5764 5764 5764 5765 5766 5766 5766 5766 5766 5766 5766 5766 5769 5770 5770 5770 5769 5768 5768 5770 5771 5772 5774 5775 5775 5774 5772 5771 5770 5769 5768 5769 5769 5769 5771 5773 5773 5773 5772
5787 5784 5781 5777 5774 5770 5767 5763 5760 5758 5756 5754 5752 5751 5750 5748 5747 5745 5744 5744 5744 5744 5744 5745 5746 5747 5747 5746 5747 5747 5748 5749 5750 5751 5752 5753 5755 5755 5756 5757 5759 5759 5759 5760 5761 5761 5761 5761 5762 5762 5762 5763 5763 5763 5763 5763 5763 5763 5764 5764 5764 5766 5768 5768 5768 5767 5765 5765 5767 5769 5769 5771 5772 5772 5772 5771 5770 5768 5766 5765 5765 5766 5768 5769 5770 5771 5771 5771
5789 5786 5783 5780 5776 5773 5769 5766 5763 5760 5758 5756 5754 5753 5752 5751 5749 5748 5747 5746 5746 5746 5746 5746 5747 5748 5747 5747 5747 5748 5748 5749 5749 5751 5752 5753 5754 5755 5756 5757 5757 5757 5757 5758 5760 5760 5760 5760 5760 5760 5760 5761 5761 5761 5760 5761 5761 5761 5761 5761 5762 5764 5765 5765 5765 5765 5764 5763 5764 5765 5765 5766 5768 5769 5770 5770 5769 5766 5764 5762 5761 5763 5765 5766 5767 5768 5769 5769
5791 5788 5785 5782 5779 5775 5772 5769 5766 5763 5760 5758 5757 5756 5755 5753 5752 5750 5749 5749 5748 5748 5748 5748 5748 5748 5748 5748 5749 5749 5749 5749 5750 5751 5752 5752 5753 5754 5755 5756 5756 5756 5756 5757 5758 5759 5759 5758 5758 5757 5757 5758 5758 5758 5758 5758 5759 5759 5759 5759 5759 5760 5761 5762 5762 5762 5762 5762 5763 5763 5762 5763 5765 5766 5768 5768 5767 5765 5763 5761 5760 5760 5762 5763 5764 5765 5765 5766
5792 5790 5787 5784 5781 5778 5775 5771 5768 5765 5763 5761 5760 5759 5757 5755 5754 5752 5752 5752 5751 5750 5750 5749 5749 5749 5749 5749 5750 5749 5750 5750 5751 5751 5752 5752 5753 5754 5754 5755 5755 5755 5755 5756 5757 5757 5756 5755 5755 5755 5755 5756 5757 5757 5756 5755 5756 5756 5756 5755 5755 5756 5757 5759 5760 5760 5760 5761 5761 5760 5759 5760 5761 5763 5765 5765 5765 5764 5762 5759 5758 5758 5759 5760 5761 5761 5762 5762
5794 5791 5789 5786 5783 5780 5777 5774 5771 5769 5766 5764 5763 5761 5758 5757 5756 5755 5755 5754 5753 5753 5752 5751 5751 5750 5750 5750 5750 5750 5751 5751 5752 5752 5752 5752 5752 5753 5753 5754 5754 5754 5754 5755 5755 5755 5754 5753 5753 5753 5754 5755 5755 5755 5754 5753 5753 5754 5754 5753 5753 5753 5754 5755 5757 5757 5757 5757 5759 5758 5756 5756 5758 5760 5762 5763 5762 5762 5760 5757 5755 5755 5756 5756 5757 5758 5758 5759
5795 5793 5790 5788 5785 5783 5780 5777 5774 5772 5770 5767 5766 5763 5760 5759 5757 5757 5756 5756 5755 5755 5754 5753 5753 5752 5752 5752 5751 5751 5752 5751 5751 5751 5752 5752 5752 5752 5752 5752 5753 5753 5752 5753 5753 5753 5753 5752 5752 5752 5752 5752 5752 5752 5751 5750 5750 5751 5752 5752 5751 5751 5751 5752 5753 5754 5754 5754 5756 5756 5755 5754 5755 5756 5758 5759 5759 5759 5758 5755 5753 5753 5753 5753 5754 5754 5755 5755
5796 5794 5792 5790 5787 5785 5782 5779 5777 5774 5772 5770 5768 5766 5763 5761 5760 5759 5758 5758 5757 5756 5755 5755 5754 5754 5754 5754 5753 5752 5753 5752 5751 5751 5751 5751 5751 5751 5751 5751 5751 5751 5750 5751 5751 5751 5751 5751 5750 5750 5749 5749 5750 5750 5749 5748 5748 5748 5749 5749 5749 5749 5748 5749 5750 5751 5751 5751 5752 5753 5753 5752 5751 5752 5754 5755 5755 5755 5754 5753 5751 5750 5750 5750 5750 5751 5751 5752
5796 5795 5793 5791 5789 5787 5785 5782 5779 5777 5775 5773 5771 5768 5766 5764 5762 5761 5760 5759 5758 5757 5756 5756 5755 5755 5755 5755 5755 5754 5754 5753 5752 5751 5751 5751 5751 5750 5750 5749 5749 5749 5748 5748 5749 5749 5749 5749 5748 5747 5747 5747 5748 5748 5746 5745 5745 5745 5745 5745 5746 5746 5746 5747 5747 5748 5748 5748 5748 5749 5750 5750 5748 5748 5750 5752 5752 5752 5752 5750 5749 5749 5748 5747 5748 5748 5748 5749
5797 5795 5794 5792 5790 5788 5786 5784 5781 5779 5777 5775 5773 5771 5769 5767 5765 5765 5763 5761 5759 5758 5757 5757 5756 5756 5756 5755 5755 5755 5754 5754 5753 5752 5752 5752 5751 5750 5750 5749 5749 5748 5747 5747 5747 5747 5747 5747 5746 5745 5743 5743 5744 5744 5744 5743 5742 5742 5741 5741 5742 5743 5743 5744 5744 5745 5745 5744 5745 5746 5747 5747 5745 5743 5746 5749 5749 5748 5749 5748 5746 5747 5746 5745 5745 5745 5745 5746
5797 5796 5794 5793 5791 5789 5787 5785 5783 5781 5779 5777 5775 5773 5771 5769 5768 5767 5765 5763 5761 5760 5759 5758 5757 5757 5756 5756 5755 5755 5754 5754 5754 5753 5753 5752 5751 5750 5750 5749 5748 5748 5747 5746 5746 5746 5746 5745 5745 5743 5741 5740 5740 5741 5741 5739 5738 5738 5738 5738 5738 5739 5739 5739 5740 5741 5740 5740 5741 5741 5743 5743 5742 5741 5742 5745 5746 5746 5745 5744 5742 5743 5743 5742 5742 5742 5743 5743
5798 5796 5795 5793 5791 5790 5788 5787 5785 5783 5781 5779 5778 5776 5773 5772 5771 5769 5766 5765 5764 5763 5761 5760 5759 5758 5757 5757 5756 5755 5755 5754 5754 5753 5752 5752 5751 5750 5749 5748 5747 5746 5746 5745 5745 5745 5745 5744 5742 5741 5739 5738 5737 5737 5737 5736 5735 5735 5734 5734 5734 5734 5734 5735 5736 5737 5736 5736 5737 5737 5738 5738 5738 5739 5739 5740 5742 5743 5742 5740 5738 5739 5739 5739 5739 5739 5739 5740
5798 5796 5795 5793 5792 5790 5789 5788 5786 5784 5782 5780 5779 5777 5775 5774 5773 5770 5768 5767 5765 5764 5763 5762 5761 5760 5759 5758 5757 5756 5755 5754 5754 5753 5752 5751 5750 5749 5748 5746 5745 5744 5744 5744 5743 5743 5743 5743 5740 5738 5737 5735 5734 5733 5733 5733 5732 5732 5731 5731 5731 5731 5730 5731 5732 5732 5732 5733 5733 5733 5733 5733 5734 5735 5736 5735 5736 5737 5738 5736 5735 5734 5735 5736 5735 5735 5736 5737
5798 5797 5795 5794 5792 5791 5790 5788 5786 5784 5783 5782 5780 5779 5777 5775 5773 5771 5770 5768 5767 5766 5764 5763 5763 5761 5760 5759 5758 5757 5756 5755 5754 5753 5752 5751 5750 5749 5747 5745 5743 5742 5742 5741 5740 5740 5740 5740 5737 5734 5733 5732 5732 5730 5729 5729 5729 5728 5728 5728 5728 5728 5727 5727 5727 5728 5729 5729 5729 5730 5730 5729 5730 5731 5731 5730 5730 5731 5733 5732 5730 5730 5731 5733 5732 5732 5734 5735
5798 5797 5795 5794 5792 5791 5790 5789 5787 5785 5783 5782 5781 5780 5778 5776 5774 5773 5771 5770 5768 5767 5766 5764 5763 5762 5761 5760 5759 5758 5757 5756 5754 5753 5752 5750 5749 5747 5745 5743 5741 5740 5740 5738 5737 5736 5737 5737 5734 5732 5731 5729 5729 5729 5726 5725 5726 5726 5725 5725 5724 5725 5724 5724 5724 5725 5726 5725 5725 5727 5727 5727 5727 5727 5727 5727 5726 5727 5727 5727 5726 5726 5728 5729 5728 5729 5730 5731
5799 5797 5796 5794 5792 5791 5790 5789 5787 5785 5784 5782 5781 5781 5779 5777 5775 5774 5773 5771 5770 5768 5767 5766 5764 5763 5761 5760 5759 5758 5757 5756 5755 5753 5752 5750 5748 5746 5743 5741 5739 5738 5737 5735 5734 5733 5734 5734 5732 5730 5729 5727 5726 5726 5724 5722 5722 5722 5722 5721 5722 5722 5722 5721 5720 5721 5722 5721 5721 5723 5724 5724 5724 5723 5723 5724 5723 5723 5723 5723 5722 5722 5723 5724 5725 5726 5727 5728
5799 5797 5796 5794 5792 5791 5790 5789 5787 5786 5784 5783 5782 5781 5779 5777 5776 5775 5773 5772 5771 5769 5768 5766 5765 5764 5762 5761 5760 5758 5756 5755 5754 5753 5751 5749 5748 5745 5742 5739 5737 5736 5734 5733 5732 5730 5729 5731 5730 5728 5726 5726 5724 5722 5721 5720 5719 5719 5719 5719 5719 5719 5719 5718 5717 5717 5718 5718 5718 5719 5721 5721 5720 5720 5720 5720 5720 5720 5720 5720 5719 5719 5719 5720 5721 5722 5724 5725
5799 5797 5796 5794 5793 5791 5791 5789 5788 5786 5784 5783 5782 5781 5779 5777 5776 5775 5774 5773 5771 5770 5768 5767 5766 5764 5763 5761 5760 5758 5756 5755 5753 5751 5750 5748 5746 5744 5741 5739 5737 5735 5733 5731 5730 5728 5725 5726 5728 5726 5724 5723 5721 5719 5719 5718 5717 5717 5716 5716 5716 5716 5715 5715 5715 5715 5715 5715 5715 5715 5717 5718 5718 5717 5717 5717 5717 5717 5717 5716 5717 5716 5716 5716 5717 5718 5720 5721
5798 5797 5796 5794 5793 5792 5791 5789 5788 5786 5784 5783 5782 5780 5779 5778 5776 5775 5774 5773 5771 5770 5769 5767 5766 5765 5763 5762 5760 5758 5757 5755 5753 5751 5749 5747 5745 5742 5739 5738 5736 5734 5731 5729 5727 5725 5723 5721 5723 5723 5721 5719 5717 5715 5715 5715 5715 5715 5713 5713 5713 5712 5712 5712 5712 5712 5712 5712 5712 5712 5713 5715 5716 5715 5714 5714 5714 5714 5714 5714 5714 5714 5714 5714 5715 5716 5717 5718
5798 5797 5795 5794 5793 5792 5791 5789 5787 5786 5785 5783 5782 5780 5779 5778 5776 5775 5774 5772 5771 5770 5769 5767 5766 5765 5763 5762 5760 5759 5757 5755 5753 5750 5748 5745 5742 5740 5738 5735 5734 5731 5729 5727 5724 5722 5720 5718 5718 5719 5718 5716 5714 5712 5711 5711 5711 5711 5710 5710 5709 5709 5709 5709 5709 5709 5709 5709 5709 5709 5709 5711 5713 5713 5712 5712 5711 5711 5712 5712 5711 5711 5711 5711 5713 5714 5715 5714
5797 5796 5795 5794 5793 5792 5791 5789 5787 5786 5785 5784 5782 5780 5779 5777 5776 5775 5774 5772 5771 5770 5768 5767 5766 5765 5763 5762 5760 5758 5757 5755 5752 5749 5746 5743 5740 5738 5735 5733 5730 5728 5726 5724 5722 5719 5717 5715 5714 5714 5714 5712 5711 5710 5708 5708 5707 5707 5706 5706 5706 5706 5706 5706 5705 5706 5706 5705 5706 5706 5705 5707 5710 5710 5708 5709 5709 5709 5709 5708 5708 5708 5708 5708 5710 5711 5712 5711
5797 5796 5795 5794 5793 5791 5790 5789 5787 5786 5785 5784 5782 5781 5779 5777 5776 5775 5774 5773 5771 5769 5768 5767 5766 5764 5763 5761 5760 5758 5756 5754 5752 5749 5746 5742 5738 5735 5733 5729 5727 5725 5723 5721 5719 5716 5714 5713 5712 5711 5710 5708 5706 5706 5706 5705 5704 5703 5703 5703 5703 5703 5703 5703 5702 5702 5703 5703 5703 5703 5701 5703 5706 5706 5705 5705 5705 5705 5705 5705 5705 5705 5705 5706 5706 5707 5707 5708
5797 5796 5795 5794 5792 5791 5789 5788 5787 5786 5785 5784 5782 5781 5779 5778 5776 5775 5774 5773 5771 5769 5768 5766 5765 5764 5762 5760 5759 5757 5755 5753 5750 5748 5745 5741 5737 5734 5730 5727 5724 5722 5720 5717 5715 5713 5711 5710 5708 5707 5707 5705 5704 5703 5703 5702 5701 5700 5700 5700 5699 5699 5699 5699 5699 5699 5699 5699 5700 5700 5699 5700 5701 5701 5701 5701 5700 5701 5701 5701 5701 5701 5701 5701 5702 5702 5703 5704
5796 5796 5795 5793 5792 5790 5789 5788 5787 5786 5784 5783 5782 5780 5779 5778 5776 5775 5774 5772 5771 5769 5768 5766 5764 5763 5761 5760 5758 5756 5754 5752 5749 5747 5744 5740 5736 5733 5729 5725 5722 5720 5717 5714 5712 5710 5708 5706 5705 5703 5702 5702 5701 5701 5700 5700 5700 5698 5697 5697 5696 5696 5696 5696 5696 5696 5696 5696 5696 5696 5696 5697 5696 5695 5696 5697 5696 5697 5698 5697 5697 5698 5697 5697 5698 5699 5699 5699
5796 5795 5794 5793 5792 5791 5789 5788 5787 5785 5784 5783 5782 5781 5780 5778 5776 5775 5773 5772 5771 5769 5767 5765 5763 5762 5760 5759 5757 5755 5753 5751 5749 5745 5742 5739 5735 5731 5727 5723 5719 5716 5715 5712 5709 5707 5705 5704 5703 5701 5700 5699 5699 5698 5698 5698 5698 5697 5696 5695 5694 5693 5693 5694 5693 5693 5692 5692 5692 5692 5692 5693 5693 5692 5692 5692 5693 5693 5694 5694 5693 5694 5695 5695 5695 5695 5695 5695
5794 5794 5793 5792 5792 5790 5789 5788 5787 5786 5784 5783 5782 5781 5779 5778 5776 5775 5773 5772 5770 5769 5767 5765 5763 5761 5760 5758 5756 5755 5752 5750 5747 5744 5741 5737 5734 5730 5726 5722 5717 5713 5712 5709 5706 5705 5704 5702 5701 5700 5698 5697 5696 5696 5696 5696 5696 5695 5694 5694 5693 5691 5691 5691 5691 5690 5690 5689 5689 5689 5688 5688 5689 5689 5688 5689 5689 5689 5689 5689 5690 5691 5692 5691 5692 5692 5691 5691
5794 5793 5792 5792 5791 5790 5788 5787 5786 5785 5784 5782 5781 5780 5779 5777 5775 5774 5773 5772 5770 5768 5766 5765 5763 5761 5759 5758 5756 5754 5752 5749 5746 5743 5740 5736 5732 5729 5724 5720 5716 5712 5709 5707 5705 5703 5702 5701 5700 5699 5697 5695 5694 5694 5694 5694 5693 5693 5692 5692 5691 5690 5689 5689 5689 5688 5688 5687 5686 5686 5685 5684 5685 5685 5686 5685 5686 5686 5686 5686 5686 5686 5687 5687 5688 5689 5688 5688
5793 5792 5792 5791 5790 5789 5788 5787 5785 5784 5783 5782 5781 5780 5778 5777 5776 5774 5772 5771 5769 5767 5766 5764 5762 5761 5759 5757 5755 5753 5751 5749 5746 5743 5739 5735 5731 5727 5723 5719 5715 5710 5707 5705 5703 5702 5701 5699 5699 5698 5696 5694 5693 5692 5691 5691 5691 5690 5690 5690 5689 5688 5687 5687 5686 5686 5685 5684 5683 5683 5682 5682 5681 5681 5682 5682 5682 5683 5683 5682 5682 5682 5683 5683 5684 5685 5685 5684
5792 5791 5791 5790 5789 5789 5787 5786 5785 5783 5782 5782 5781 5780 5778 5777 5776 5774 5772 5770 5769 5767 5765 5764 5762 5760 5758 5756 5754 5752 5750 5748 5745 5742 5738 5734 5730 5726 5721 5717 5714 5710 5706 5703 5701 5700 5699 5698 5697 5696 5695 5693 5692 5691 5690 5689 5689 5688 5688 5687 5687 5686 5686 5685 5684 5683 5682 5682 5681 5680 5679 5679 5679 5678 5678 5678 5679 5679 5679 5679 5679 5679 5680 5680 5680 5681 5681 5681
5790 5790 5789 5789 5788 5788 5787 5786 5784 5783 5782 5782 5780 5779 5778 5776 5775 5773 5772 5770 5768 5767 5765 5763 5761 5759 5757 5755 5753 5751 5749 5747 5744 5741 5737 5733 5729 5725 5721 5716 5712 5709 5705 5702 5699 5697 5696 5696 5694 5693 5693 5692 5691 5691 5690 5688 5687 5686 5686 5686 5685 5684 5684 5683 5682 5681 5680 5680 5679 5678 5677 5677 5676 5676 5675 5675 5675 5676 5676 5676 5676 5676 5676 5676 5676 5676 5676 5677
5789 5788 5788 5788 5787 5786 5786 5785 5783 5782 5782 5781 5779 5778 5777 5775 5773 5772 5770 5769 5768 5766 5764 5762 5760 5758 5756 5754 5752 5750 5748 5746 5743 5739 5736 5732 5728 5724 5719 5714 5710 5707 5704 5701 5698 5695 5694 5693 5692 5691 5690 5690 5690 5689 5688 5687 5685 5685 5684 5684 5683 5682 5682 5681 5680 5679 5679 5678 5677 5677 5676 5675 5675 5674 5673 5673 5673 5673 5673 5673 5673 5672 5672 5672 5672 5671 5672 5672